Retour au catalogue

ARIANE 44L+ DEB

ActifGTO
NORAD 34180·DEBRIS·🇫🇷 France

Lancé Apr 15, 1992 depuis Guiana Space Centre

Loading…

TLE

VieillissantSource: Space-Track

Époque: Sep 14, 2026, 11:49 UTC

1 34180U 92021W   26257.49258971 -.00000095  00000-0  00000-0 0  9992
2 34180   4.4069 231.6716 6931921 358.5471 267.7551  2.22442527188135

Suivez ARIANE 44L+ DEB en temps réel avec AllMySat

Download on the App Store